Location: Campestrin
(46.4667°N, 11.7167°E)
Time: 11:10:40
(UTC+00:00)

Cosmos 1455 - Pass Details

Date: 18 April 2021
Orbit: 497 x 521 km, 82.5° (Epoch: 07 May)

Event Time Altitude Azimuth Distance (km) Brightness Sun altitude
Rises 19:13:25 0° 186° (S) 2,591 5.5 -11.6°
Reaches altitude 10° 19:15:32 10° 185° (S) 1,709 4.6 -11.9°
Maximum altitude 19:19:17 84° 98° (E) 511 2.0 -12.5°
Drops below altitude 10° 19:23:02 10° 10° (N) 1,714 5.1 -13.0°
Sets 19:25:09 0° 10° (N) 2,601 6.1 -13.3°
